User: anonymous   Login
Location: *
(43.4667°N, 11.6833°E)
Time: 21:13:58
(UTC+00:00)
Language:

ALOS 2 - Orbit

View from above orbital plane
View from above orbital plane
View from above satellite
View from above satellite

Ground track
Ground track

The orbit data is extracted from the following two-line orbital elements,

1 39766U 14029A   19287.44832321 -.00000145  00000-0 -12593-4 0  9997
2 39766  97.9225  22.5902 0001345  85.7489 274.3879 14.79470192291175
Epoch (UTC): 14 October 2019 10:45:35
Eccentricity: 0.0001345
inclination: 97.9225°
perigee height: 630 km
apogee height: 632 km
right ascension of ascending node: 22.5902°
argument of perigee: 85.7489°
revolutions per day: 14.79470192
mean anomaly at epoch: 274.3879°
orbit number at epoch: 29117

The dashed part of the orbit path shows where the satellite is in the earth's shadow,  

DLR